�������l�o���
Date,Time,MP-1(��Sv/h),MP-2(��Sv/h),MP-3(��Sv/h),MP-4(��Sv/h),MP-5(��Sv/h),MP-6(��Sv/h),MP-7(��Sv/h),MP-8(��Sv/h),����,����(m/s),���J
2022/09/03,00:00,0.591,0.834,0.528,1.010,0.722,0.337,0.588,0.552,��,1.9,��
2022/09/03,00:10,0.591,0.832,0.529,1.009,0.722,0.339,0.589,0.554,��쐼,1.9,��
2022/09/03,00:20,0.592,0.832,0.527,1.010,0.721,0.338,0.590,0.553,��,2.6,��
2022/09/03,00:30,0.593,0.834,0.527,1.011,0.722,0.338,0.589,0.553,��,1.7,��
2022/09/03,00:40,0.592,0.835,0.528,1.010,0.721,0.338,0.588,0.552,��,0.9,��
2022/09/03,00:50,0.592,0.835,0.529,1.010,0.722,0.337,0.590,0.553,-,CALM,��
2022/09/03,01:00,0.593,0.833,0.527,1.009,0.723,0.337,0.591,0.553,-,CALM,��
2022/09/03,01:10,0.592,0.834,0.529,1.010,0.722,0.338,0.588,0.552,-,CALM,��
2022/09/03,01:20,0.591,0.836,0.529,1.010,0.722,0.336,0.590,0.552,-,CALM,��
2022/09/03,01:30,0.592,0.835,0.527,1.011,0.723,0.337,0.588,0.552,-,CALM,��
2022/09/03,01:40,0.593,0.834,0.528,1.010,0.723,0.338,0.589,0.554,�k�k��,0.6,��
2022/09/03,01:50,0.593,0.835,0.527,1.010,0.721,0.338,0.590,0.552,�k�k��,0.8,��
2022/09/03,02:00,0.592,0.834,0.528,1.010,0.722,0.338,0.591,0.554,�k,2.0,��
2022/09/03,02:10,0.593,0.836,0.526,1.011,0.722,0.337,0.590,0.552,�k,2.6,��
2022/09/03,02:20,0.591,0.835,0.528,1.009,0.723,0.338,0.590,0.554,�k,2.6,��
2022/09/03,02:30,0.593,0.835,0.527,1.008,0.723,0.338,0.590,0.554,�k,2.3,��
2022/09/03,02:40,0.592,0.837,0.529,1.010,0.724,0.338,0.590,0.554,�k,2.6,��
2022/09/03,02:50,0.592,0.835,0.528,1.012,0.722,0.338,0.590,0.555,�k,2.6,�L
2022/09/03,03:00,0.593,0.833,0.527,1.012,0.723,0.337,0.591,0.554,�k,1.2,��
2022/09/03,03:10,0.592,0.834,0.528,1.011,0.724,0.339,0.589,0.554,�k,0.9,��
2022/09/03,03:20,0.593,0.835,0.529,1.012,0.721,0.338,0.589,0.553,�k�k��,2.3,��
2022/09/03,03:30,0.593,0.835,0.529,1.012,0.724,0.337,0.591,0.554,�k�k��,2.6,��
2022/09/03,03:40,0.592,0.836,0.528,1.011,0.723,0.337,0.590,0.553,�k,3.3,��
2022/09/03,03:50,0.594,0.833,0.529,1.010,0.723,0.337,0.590,0.554,�k,3.5,��
2022/09/03,04:00,0.592,0.834,0.528,1.011,0.723,0.338,0.591,0.553,�k,3.3,��
2022/09/03,04:10,0.594,0.834,0.529,1.012,0.725,0.337,0.591,0.552,�k�k��,3.8,��
2022/09/03,04:20,0.592,0.833,0.529,1.012,0.723,0.338,0.589,0.554,�k,3.1,��
2022/09/03,04:30,0.593,0.835,0.529,1.010,0.723,0.338,0.591,0.554,�k,2.6,��
2022/09/03,04:40,0.594,0.833,0.529,1.009,0.722,0.339,0.590,0.553,�k,3.0,��
2022/09/03,04:50,0.593,0.836,0.528,1.011,0.721,0.339,0.591,0.554,�k,2.6,��
2022/09/03,05:00,0.594,0.833,0.527,1.009,0.722,0.338,0.590,0.554,�k,2.8,�L
2022/09/03,05:10,0.591,0.833,0.529,1.009,0.723,0.337,0.590,0.553,�k,2.0,��
2022/09/03,05:20,0.592,0.835,0.528,1.011,0.723,0.338,0.591,0.553,�k,2.0,��
2022/09/03,05:30,0.592,0.833,0.527,1.013,0.723,0.337,0.591,0.552,�k�k��,1.7,��
2022/09/03,05:40,0.593,0.835,0.527,1.009,0.723,0.338,0.590,0.553,�k�k��,1.7,��
2022/09/03,05:50,0.593,0.835,0.528,1.012,0.724,0.338,0.591,0.554,�k,1.2,�L
2022/09/03,06:00,0.591,0.833,0.527,1.010,0.723,0.339,0.591,0.554,�k��,0.6,��
2022/09/03,06:10,0.592,0.833,0.527,1.009,0.724,0.338,0.589,0.553,�k�k��,1.2,��
2022/09/03,06:20,0.592,0.835,0.529,1.011,0.723,0.336,0.590,0.553,�k�k��,1.2,��
2022/09/03,06:30,0.592,0.835,0.529,1.010,0.723,0.338,0.590,0.554,�k�k��,1.5,��
2022/09/03,06:40,0.592,0.832,0.527,1.011,0.723,0.337,0.591,0.552,�k�k��,1.5,��
2022/09/03,06:50,0.593,0.833,0.528,1.010,0.722,0.337,0.590,0.552,�k�k��,1.7,��
2022/09/03,07:00,0.592,0.833,0.528,1.010,0.723,0.337,0.587,0.553,�k�k��,2.0,��
2022/09/03,07:10,0.593,0.834,0.528,1.009,0.721,0.338,0.589,0.552,�k�k��,2.3,��
2022/09/03,07:20,0.592,0.834,0.528,1.010,0.723,0.338,0.590,0.552,�k�k��,2.3,��
2022/09/03,07:30,0.593,0.834,0.527,1.011,0.723,0.337,0.588,0.554,�k�k��,2.6,��
2022/09/03,07:40,0.594,0.833,0.526,1.010,0.721,0.337,0.589,0.552,�k�k��,2.0,��
2022/09/03,07:50,0.591,0.832,0.526,1.010,0.723,0.336,0.587,0.551,�k�k��,1.7,��
2022/09/03,08:00,0.591,0.830,0.527,1.011,0.721,0.337,0.589,0.553,�k�k��,1.5,��
2022/09/03,08:10,0.591,0.832,0.525,1.011,0.722,0.337,0.589,0.552,�k�k��,2.3,��
2022/09/03,08:20,0.591,0.831,0.526,1.009,0.721,0.337,0.587,0.551,�k�k��,2.3,��
2022/09/03,08:30,0.591,0.833,0.526,1.009,0.723,0.336,0.588,0.553,�k,2.0,��
2022/09/03,08:40,0.592,0.830,0.525,1.009,0.720,0.336,0.588,0.549,�k�k��,1.9,��
2022/09/03,08:50,0.593,0.832,0.526,1.009,0.722,0.336,0.587,0.549,�k�k��,1.9,�L
2022/09/03,09:00,0.591,0.831,0.525,1.009,0.722,0.336,0.590,0.551,�k,1.2,�L
2022/09/03,09:10,0.591,0.830,0.526,1.009,0.723,0.337,0.590,0.549,�k�k��,1.9,��
2022/09/03,09:20,0.591,0.829,0.528,1.011,0.720,0.334,0.589,0.550,�k,1.5,��
2022/09/03,09:30,0.592,0.832,0.526,1.009,0.722,0.335,0.587,0.550,�k�k��,1.5,��
2022/09/03,09:40,0.592,0.832,0.526,1.009,0.722,0.337,0.588,0.551,�k,2.0,��
2022/09/03,09:50,0.591,0.831,0.526,1.010,0.722,0.339,0.588,0.550,���k��,2.0,��
2022/09/03,10:00,0.591,0.834,0.526,1.009,0.722,0.336,0.588,0.551,��,1.5,��
2022/09/03,10:10,0.592,0.830,0.525,1.010,0.723,0.336,0.590,0.551,�k��,2.2,��
2022/09/03,10:20,0.591,0.834,0.526,1.011,0.723,0.336,0.588,0.552,�k��,2.5,��
2022/09/03,10:30,0.592,0.832,0.527,1.010,0.725,0.338,0.588,0.553,���k��,2.5,��
2022/09/03,10:40,0.592,0.833,0.528,1.009,0.721,0.336,0.590,0.550,�k��,2.6,��
2022/09/03,10:50,0.591,0.834,0.526,1.010,0.722,0.337,0.589,0.550,�k�k��,2.8,��
2022/09/03,11:00,0.593,0.831,0.527,1.012,0.724,0.338,0.589,0.549,�k��,2.6,��
2022/09/03,11:10,0.591,0.834,0.525,1.010,0.724,0.335,0.587,0.550,�k��,2.5,��
2022/09/03,11:20,0.593,0.834,0.527,1.010,0.723,0.336,0.589,0.551,�k��,2.8,��
2022/09/03,11:30,0.592,0.833,0.525,1.010,0.722,0.338,0.587,0.551,�k�k��,2.5,��
2022/09/03,11:40,0.592,0.834,0.526,1.011,0.724,0.338,0.589,0.550,�k�k��,2.8,��
2022/09/03,11:50,0.592,0.833,0.526,1.011,0.723,0.336,0.587,0.551,�k�k��,2.6,��
2022/09/03,12:00,0.593,0.835,0.526,1.013,0.723,0.338,0.588,0.551,�k��,2.6,��
2022/09/03,12:10,0.591,0.835,0.526,1.013,0.723,0.337,0.588,0.552,�k��,2.6,��
2022/09/03,12:20,0.593,0.835,0.527,1.012,0.723,0.338,0.587,0.552,�k��,2.5,��
2022/09/03,12:30,0.592,0.833,0.527,1.012,0.722,0.337,0.588,0.552,�k�k��,3.3,��
2022/09/03,12:40,0.592,0.835,0.526,1.014,0.722,0.337,0.590,0.551,�k�k��,3.3,��
2022/09/03,12:50,0.592,0.836,0.526,1.012,0.724,0.338,0.589,0.551,�k�k��,3.2,��
2022/09/03,13:00,0.592,0.835,0.525,1.014,0.724,0.337,0.589,0.552,�k�k��,2.6,��
2022/09/03,13:10,0.592,0.834,0.525,1.013,0.724,0.338,0.590,0.552,�k,2.9,��
2022/09/03,13:20,0.592,0.835,0.527,1.014,0.726,0.337,0.589,0.551,�k�k��,2.3,��
2022/09/03,13:30,0.591,0.834,0.527,1.013,0.726,0.337,0.589,0.552,�k��,2.3,��
2022/09/03,13:40,0.592,0.835,0.528,1.013,0.725,0.338,0.590,0.553,���k��,2.6,��
2022/09/03,13:50,0.591,0.834,0.528,1.014,0.726,0.336,0.588,0.553,�k�k��,2.6,��
2022/09/03,14:00,0.592,0.836,0.527,1.014,0.724,0.337,0.589,0.552,�k��,2.5,��
2022/09/03,14:10,0.591,0.837,0.526,1.015,0.725,0.337,0.590,0.553,�k��,2.8,��
2022/09/03,14:20,0.591,0.836,0.528,1.012,0.726,0.338,0.588,0.552,���k��,2.5,��
2022/09/03,14:30,0.591,0.836,0.530,1.013,0.726,0.337,0.588,0.552,���k��,2.6,��
2022/09/03,14:40,0.592,0.836,0.528,1.015,0.726,0.337,0.588,0.552,���k��,2.3,��
2022/09/03,14:50,0.594,0.835,0.528,1.013,0.726,0.337,0.589,0.551,�k��,2.0,��
2022/09/03,15:00,0.592,0.839,0.528,1.014,0.724,0.337,0.589,0.552,�k��,2.2,��
2022/09/03,15:10,0.594,0.836,0.528,1.013,0.724,0.337,0.587,0.553,�k��,2.3,��
2022/09/03,15:20,0.594,0.837,0.528,1.015,0.725,0.338,0.588,0.553,�k��,2.3,��
2022/09/03,15:30,0.596,0.837,0.528,1.014,0.726,0.338,0.590,0.553,�k��,2.0,��
2022/09/03,15:40,0.596,0.840,0.528,1.013,0.727,0.337,0.588,0.552,���k��,1.9,��
2022/09/03,15:50,0.596,0.840,0.527,1.013,0.724,0.336,0.588,0.553,�k��,2.0,��
2022/09/03,16:00,0.597,0.840,0.528,1.013,0.725,0.338,0.588,0.552,�k��,1.7,��
2022/09/03,16:10,0.596,0.840,0.526,1.016,0.725,0.337,0.587,0.552,�k��,1.4,��
2022/09/03,16:20,0.597,0.837,0.530,1.014,0.725,0.337,0.589,0.554,���k��,1.7,��
2022/09/03,16:30,0.595,0.840,0.530,1.014,0.727,0.336,0.588,0.553,�k��,1.9,��
2022/09/03,16:40,0.595,0.839,0.530,1.016,0.726,0.338,0.589,0.553,�k��,1.7,��
2022/09/03,16:50,0.594,0.838,0.530,1.015,0.726,0.337,0.589,0.554,�k��,1.7,��
2022/09/03,17:00,0.596,0.839,0.531,1.013,0.726,0.338,0.589,0.554,�k��,1.5,��
2022/09/03,17:10,0.596,0.839,0.530,1.015,0.726,0.339,0.590,0.553,�k��,1.2,��
2022/09/03,17:20,0.595,0.839,0.529,1.015,0.726,0.337,0.589,0.552,�k��,1.5,��
2022/09/03,17:30,0.595,0.840,0.528,1.014,0.727,0.339,0.590,0.554,�k�k��,1.4,��
2022/09/03,17:40,0.595,0.841,0.530,1.016,0.726,0.338,0.588,0.554,�k�k��,1.7,��
2022/09/03,17:50,0.595,0.838,0.528,1.015,0.728,0.338,0.590,0.553,�k��,1.7,��
2022/09/03,18:00,0.594,0.838,0.530,1.015,0.729,0.337,0.590,0.554,�k�k��,1.5,��
2022/09/03,18:10,0.594,0.841,0.528,1.016,0.729,0.338,0.589,0.554,�k�k��,1.9,��
2022/09/03,18:20,0.596,0.841,0.527,1.015,0.727,0.339,0.588,0.554,�k�k��,1.4,��
2022/09/03,18:30,0.594,0.839,0.528,1.014,0.728,0.339,0.590,0.555,�k�k��,1.5,��
2022/09/03,18:40,0.595,0.839,0.529,1.015,0.729,0.338,0.589,0.553,�k�k��,1.4,��
2022/09/03,18:50,0.596,0.839,0.529,1.016,0.726,0.338,0.589,0.554,�k,0.9,��
2022/09/03,19:00,0.595,0.839,0.531,1.016,0.728,0.339,0.591,0.555,�k,0.8,��
2022/09/03,19:10,0.595,0.838,0.530,1.015,0.726,0.338,0.592,0.554,�k,0.8,��
2022/09/03,19:20,0.594,0.837,0.531,1.017,0.728,0.338,0.590,0.553,�k�k��,1.2,��
2022/09/03,19:30,0.595,0.839,0.531,1.016,0.729,0.339,0.590,0.555,�k�k��,1.2,��
2022/09/03,19:40,0.594,0.838,0.531,1.016,0.728,0.337,0.589,0.555,�k,0.9,��
2022/09/03,19:50,0.594,0.839,0.530,1.015,0.728,0.337,0.591,0.555,�k,1.2,��
2022/09/03,20:00,0.595,0.837,0.531,1.014,0.726,0.338,0.589,0.554,�k,1.9,��
2022/09/03,20:10,0.593,0.841,0.529,1.016,0.727,0.338,0.590,0.555,�k,0.9,��
2022/09/03,20:20,0.595,0.837,0.530,1.014,0.728,0.340,0.591,0.555,�k�k��,1.2,��
2022/09/03,20:30,0.596,0.839,0.531,1.016,0.727,0.337,0.590,0.555,�k�k��,0.9,��
2022/09/03,20:40,0.596,0.839,0.528,1.018,0.728,0.338,0.591,0.554,�k��,1.2,��
2022/09/03,20:50,0.594,0.839,0.529,1.016,0.727,0.340,0.591,0.554,�k��,1.2,��
2022/09/03,21:00,0.596,0.839,0.530,1.017,0.728,0.338,0.591,0.554,�k��,0.9,��
2022/09/03,21:10,0.596,0.841,0.530,1.015,0.728,0.338,0.591,0.554,�k�k��,0.9,��
2022/09/03,21:20,0.594,0.838,0.530,1.014,0.726,0.340,0.590,0.554,�k��,0.6,��
2022/09/03,21:30,0.595,0.839,0.530,1.015,0.727,0.338,0.590,0.555,�k,0.8,��
2022/09/03,21:40,0.595,0.840,0.528,1.017,0.728,0.337,0.590,0.552,�k�k��,1.1,��
2022/09/03,21:50,0.595,0.838,0.528,1.018,0.726,0.339,0.591,0.554,�k��,0.8,��
2022/09/03,22:00,0.594,0.838,0.527,1.015,0.730,0.338,0.591,0.556,�k�k��,0.9,��
2022/09/03,22:10,0.596,0.839,0.530,1.017,0.728,0.338,0.591,0.553,�k�k��,0.6,��
2022/09/03,22:20,0.596,0.842,0.529,1.014,0.729,0.339,0.592,0.554,-,CALM,��
2022/09/03,22:30,0.595,0.839,0.529,1.017,0.726,0.338,0.592,0.554,�k,0.9,��
2022/09/03,22:40,0.596,0.839,0.529,1.016,0.729,0.340,0.592,0.554,�k�k��,1.7,��
2022/09/03,22:50,0.594,0.838,0.529,1.016,0.728,0.339,0.593,0.555,�k�k��,1.4,��
2022/09/03,23:00,0.596,0.840,0.531,1.016,0.728,0.338,0.590,0.554,�k�k��,1.9,��
2022/09/03,23:10,0.595,0.836,0.530,1.017,0.727,0.338,0.591,0.553,�k,1.2,��
2022/09/03,23:20,0.598,0.839,0.530,1.015,0.729,0.340,0.592,0.556,�k�k��,0.9,��
2022/09/03,23:30,0.596,0.837,0.530,1.016,0.728,0.339,0.591,0.553,�k�k��,1.1,��
2022/09/03,23:40,0.596,0.840,0.529,1.016,0.727,0.339,0.590,0.554,�k�k��,1.2,��
2022/09/03,23:50,0.596,0.841,0.531,1.017,0.728,0.339,0.591,0.555,�k�k��,1.2,��
